Overview Statistics Trail Chart Weather Telemetry Raw packets
 

This is the latest recevied weather packets stored in our database for station/object 4S6DRJ-13. If no packets are shown the sender has not sent any weather packets the latest 10 day(s).

<< 1 2 3 4 5 6 7 >>
Time Temp. Humidity Pressure Rain* Wind** Luminosity Snow
1788439984 28.89° C 79% 1008.4 hPa 0 mm 0 m/s 1 W/m² -
1788439923 28.89° C 79% 1008.6 hPa 0 mm 0.45 m/s, 85° 2 W/m² -
1788439862 28.89° C 79% 1008.5 hPa 0 mm 0.89 m/s, 300° 2 W/m² -
1788439801 28.89° C 79% 1008.7 hPa 0 mm 1.79 m/s, 37° 2 W/m² -
1788439740 28.89° C 79% 1008.4 hPa 0 mm 0.89 m/s, 212° 3 W/m² -
1788439679 28.89° C 79% 1008.6 hPa 0 mm 1.34 m/s, 249° 3 W/m² -
1788439618 28.89° C 79% 1008.4 hPa 0 mm 0.89 m/s, 240° 4 W/m² -
1788439557 28.89° C 79% 1008.3 hPa 0 mm 0.89 m/s, 242° 4 W/m² -
1788439496 28.89° C 79% 1008.3 hPa 0 mm 0.45 m/s, 214° 5 W/m² -
1788439435 28.89° C 79% 1008.6 hPa 0 mm 0.89 m/s, 345° 6 W/m² -
1788439374 28.89° C 78% 1008.3 hPa 0 mm 1.79 m/s, 272° 6 W/m² -
1788439313 28.89° C 79% 1008.4 hPa 0 mm 2.24 m/s, 263° 8 W/m² -
1788439252 28.89° C 79% 1008.3 hPa 0 mm 1.34 m/s, 278° 9 W/m² -
1788439191 28.89° C 78% 1008.2 hPa 0 mm 0.45 m/s, 209° 10 W/m² -
1788439130 28.89° C 78% 1008.4 hPa 0 mm 1.79 m/s, 239° 12 W/m² -
1788439070 28.89° C 78% 1008.4 hPa 0 mm 1.34 m/s, 134° 13 W/m² -
1788439008 28.89° C 78% 1008.2 hPa 0 mm 1.34 m/s, 191° 14 W/m² -
1788438947 28.89° C 78% 1008.2 hPa 0 mm 0.89 m/s, 243° 15 W/m² -
1788438886 28.89° C 78% 1008.5 hPa 0 mm 0.45 m/s, 217° 18 W/m² -
1788438825 28.89° C 78% 1008.3 hPa 0 mm 0.45 m/s, 217° 20 W/m² -
1788438765 28.89° C 78% 1008.2 hPa 0 mm 0.89 m/s, 221° 22 W/m² -
1788438703 28.89° C 78% 1008.5 hPa 0 mm 1.34 m/s, 185° 23 W/m² -
1788438641 28.89° C 78% 1008.2 hPa 0 mm 0.89 m/s, 259° 24 W/m² -
1788438580 28.89° C 78% 1008.1 hPa 0 mm 1.34 m/s, 317° 27 W/m² -
1788438519 28.89° C 78% 1008.1 hPa 0 mm 1.79 m/s, 197° 30 W/m² -

* Rain latest hour (hover to see other rain measurements)
** Current wind speed in m/s (hover to see current wind gust speed)